Lava Hot Springs, Idaho, United States (83246)
Lat: 42.62N, Lon: 112.01W
Wx Zone: IDZ023
Local Info
Past Weather Observations for Today

NOTE: This archive is for the closest National Weather Service station to Lava Hot Springs. Information may differ from the station used for current weather conditions.

Click here for Long-term Archive

Time Weather Temperature Dewpoint Humidity Pressure Winds Precip Visibility
19:53
Clear
36°F / 2°C 28°F / -2°C 75% 30.27 in
(1025 mb)
S 11.5 mph
(S 19 kph)
- 10SM
18:53
Clear
37°F / 3°C 28°F / -2°C 70% 30.27 in
(1025 mb)
SSE 8.1 mph
(SSE 13 kph)
- 10SM
17:53
Partly Cloudy
37°F / 3°C 28°F / -2°C 70% 30.27 in
(1025 mb)
SW 9.2 mph
(SW 15 kph)
- 10SM
16:53
Partly Cloudy
41°F / 5°C 30°F / -1°C 66% 30.27 in
(1025 mb)
SSW 17.3 mph
(SSW 28 kph)
- 10SM
15:53
Clear
43°F / 6°C 30°F / -1°C 61% 30.27 in
(1025 mb)
SSW 19.6 mph
(SSW 32 kph)
- 10SM
14:53
Partly Cloudy
43°F / 6°C 30°F / -1°C 61% 30.24 in
(1024 mb)
SSW 25.3 mph
(SSW 41 kph)
- 10SM
13:53
Partly Cloudy
45°F / 7°C 30°F / -1°C 57% 30.21 in
(1023 mb)
SSW 31.1 mph
(SSW 50 kph)
- 10SM
12:53
Partly Cloudy
45°F / 7°C 32°F / 0°C 61% 30.24 in
(1024 mb)
SSW 28.8 mph
(SSW 46 kph)
- 10SM
11:53
Partly Cloudy
43°F / 6°C 34°F / 1°C 71% 30.24 in
(1024 mb)
SW 31.1 mph
(SW 50 kph)
- 10SM
10:53
Mostly Cloudy
39°F / 4°C 30°F / -1°C 70% 30.24 in
(1024 mb)
SSW 23 mph
(SSW 37 kph)
- 10SM
09:53
Mostly Cloudy
39°F / 4°C 28°F / -2°C 65% 30.21 in
(1023 mb)
SW 25.3 mph
(SW 41 kph)
- 10SM
08:53
Clear
39°F / 4°C 27°F / -3°C 61% 30.21 in
(1023 mb)
SW 20.7 mph
(SW 33 kph)
- 10SM
07:53
Partly Cloudy
36°F / 2°C 25°F / -4°C 65% 30.18 in
(1022 mb)
SSE 17.3 mph
(SSE 28 kph)
- 10SM
06:53
Partly Cloudy
27°F / -3°C 21°F / -6°C 80% 30.18 in
(1022 mb)
Calm - 10SM
05:53
Clear
27°F / -3°C 21°F / -6°C 80% 30.18 in
(1022 mb)
E 5.8 mph
(E 9 kph)
- 10SM
04:53
Clear
27°F / -3°C 21°F / -6°C 80% 30.18 in
(1022 mb)
NNW 3.5 mph
(NNW 6 kph)
- 10SM
03:53
Partly Cloudy
28°F / -2°C 25°F / -4°C 86% 30.18 in
(1022 mb)
Calm - 10SM
02:53
Mostly Cloudy
28°F / -2°C 25°F / -4°C 86% 30.18 in
(1022 mb)
Calm - 9SM
01:53
Mostly Cloudy
27°F / -3°C 21°F / -6°C 80% 30.21 in
(1023 mb)
ESE 8.1 mph
(ESE 13 kph)
- 10SM
00:53
Clear
28°F / -2°C 23°F / -5°C 80% 30.21 in
(1023 mb)
Calm - 10SM
Time Weather Temperature Dewpoint Humidity Pressure Winds Precip Visibility


Weather for websites

WeatherForYou.com, LLC is not responsible for any damages or problems caused by this service. Current weather conditions are obtained from the closest station including government and personal stations which may have varying degrees of accuracy. Weather forecasts are derived from the NOAA NDFD. Like all things, this site belongs to Jesus Christ... He just trusts us to maintain it. If you have any questions or comments email webmaster@weatherforyou.com

Copyright © 2016, WeatherForYou.com LLC. All rights reserved.